Weather History for Ionia, MI

Change the Weather History Date:

Saturday, April 6, 2013

  Actual Average (KGRR) Record (KGRR)
Temperature  
Mean Temperature 44 °F 44 °F  
Max Temperature 57 °F 54 °F 81 °F (1991)
Min Temperature 32 °F 34 °F 18 °F (2003)
Degree Days  
Heating Degree Days 20 21  
Month to date heating degree days 132  
Since 1 July heating degree days 5819  
Cooling Degree Days 0 0  
Month to date cooling degree days 0  
Year to date cooling degree days 1  
Moisture  
Dew Point 26 °F    
Average Humidity 52    
Maximum Humidity 78    
Minimum Humidity 30    
Precipitation  
Precipitation 0.00 in 0.11 in 1.87 in (2010)
Month to date precipitation 0.62  
Year to date precipitation 6.87  
Snow  
Snow 0.00 in 0.00 in 3.50 in (1914)
Month to date snowfall 0.7  
Since 1 July snowfall 73.8  
Snow Depth -    
Sea Level Pressure  
Sea Level Pressure 30.00 in    
Wind  
Wind Speed 12 mph (SE)    
Max Wind Speed 28 mph    
Max Gust Speed 33 mph    
Visibility 10 miles    
Events Rain    
T = Trace of Precipitation, MM = Missing Value Source: NWS Daily Summary

Daily Weather History Graph

Daily Weather History Graph

Search for Another Location

Airport:

Trip Planner

Search our weather history database for the weather conditions in past years. The results will help you decide how hot, cold, wet, or windy it might be!

Date:

Astronomy

Apr. 06, 2013 Rise Set
Actual Time 7:13 AM EDT 8:12 PM EDT
Civil Twilight 6:44 AM EDT 8:41 PM EDT
Nautical Twilight 6:09 AM EDT 9:16 PM EDT
Astronomical Twilight 5:33 AM EDT 9:52 PM EDT
Moon 5:01 AM EDT (4/6) 4:35 PM EDT (4/6)
Length of Visible Light 13h 57m
Length of Day
12h 59m
Waning Crescent, 15% of the Moon is Illuminated
Apr 6
Waning Crescent
Apr 10
New
Apr 18
First Quarter
Apr 25
Full
May 2
Last Quarter

Hourly Weather History & Observations

Time (EDT) Temp. Windchill Dew Point Humidity Pressure Visibility Wind Dir Wind Speed Gust Speed Precip Events Conditions
12:14 AM 34.9 °F 29.0 °F 17.1 °F 48% 30.17 in 10.0 mi NE 6.9 mph - N/A   Clear
12:34 AM 34.9 °F 29.0 °F 17.6 °F 49% 30.17 in 10.0 mi NE 6.9 mph - N/A   Mostly Cloudy
12:54 AM 34.7 °F 28.8 °F 18.5 °F 52% 30.17 in 10.0 mi ENE 6.9 mph - N/A   Overcast
1:14 AM 33.8 °F 28.6 °F 19.2 °F 55% 30.17 in 10.0 mi ENE 5.8 mph - N/A   Overcast
1:34 AM 33.1 °F 26.9 °F 19.6 °F 58% 30.18 in 10.0 mi ENE 6.9 mph - N/A   Overcast
1:54 AM 33.3 °F 27.1 °F 20.7 °F 60% 30.18 in 10.0 mi ENE 6.9 mph - N/A   Overcast
2:14 AM 32.2 °F 27.7 °F 21.0 °F 63% 30.18 in 10.0 mi NE 4.6 mph - N/A   Mostly Cloudy
2:34 AM 32.0 °F 27.5 °F 21.4 °F 65% 30.18 in 10.0 mi NE 4.6 mph - N/A   Mostly Cloudy
2:54 AM 32.2 °F 26.7 °F 22.1 °F 66% 30.18 in 10.0 mi ENE 5.8 mph - N/A   Overcast
3:14 AM 32.0 °F 27.5 °F 21.9 °F 66% 30.18 in 10.0 mi ENE 4.6 mph - N/A   Overcast
3:34 AM 32.0 °F 26.4 °F 23.9 °F 72% 30.18 in 10.0 mi East 5.8 mph - N/A   Overcast
3:54 AM 32.0 °F 26.4 °F 24.8 °F 75% 30.17 in 10.0 mi East 5.8 mph - N/A   Overcast
4:14 AM 32.0 °F 27.5 °F 25.7 °F 78% 30.17 in 10.0 mi East 4.6 mph - N/A   Overcast
4:34 AM 32.5 °F 28.1 °F 26.1 °F 77% 30.17 in 10.0 mi ESE 4.6 mph - N/A   Overcast
4:54 AM 32.9 °F 28.5 °F 26.2 °F 76% 30.17 in 10.0 mi ESE 4.6 mph - N/A   Overcast
5:14 AM 33.4 °F 28.1 °F 26.1 °F 74% 30.17 in 10.0 mi SE 5.8 mph - N/A   Overcast
5:34 AM 33.8 °F 27.7 °F 26.2 °F 74% 30.16 in 10.0 mi SE 6.9 mph - N/A   Overcast
5:54 AM 34.2 °F 29.0 °F 27.5 °F 77% 30.16 in 10.0 mi ESE 5.8 mph - N/A   Overcast
6:14 AM 34.7 °F 27.5 °F 28.6 °F 78% 30.16 in 10.0 mi SE 9.2 mph - N/A   Overcast
6:34 AM 35.1 °F 27.9 °F 28.9 °F 78% 30.16 in 10.0 mi SE 9.2 mph - N/A   Overcast
6:54 AM 35.1 °F 28.6 °F 28.9 °F 78% 30.16 in 10.0 mi ESE 8.1 mph - N/A   Overcast
7:14 AM 35.2 °F 27.6 °F 29.1 °F 78% 30.16 in 10.0 mi SE 10.4 mph - N/A   Overcast
7:34 AM 35.2 °F 28.1 °F 29.1 °F 78% 30.16 in 10.0 mi SE 9.2 mph - N/A   Overcast
7:54 AM 35.6 °F 27.5 °F 28.9 °F 77% 30.16 in 10.0 mi SE 11.5 mph - N/A   Overcast
8:14 AM 35.6 °F 27.5 °F 28.4 °F 75% 30.15 in 10.0 mi SE 11.5 mph - N/A   Overcast
8:34 AM 36.0 °F 26.7 °F 27.5 °F 71% 30.14 in 10.0 mi SE 15.0 mph - N/A   Overcast
8:54 AM 36.5 °F 27.8 °F 27.5 °F 70% 30.15 in 10.0 mi SSE 13.8 mph - N/A   Overcast
9:14 AM 36.9 °F 27.8 °F 27.3 °F 68% 30.15 in 7.0 mi SSE 15.0 mph 19.6 mph N/A   Overcast
9:34 AM 37.4 °F 27.5 °F 26.8 °F 66% 30.14 in 10.0 mi SE 18.4 mph 24.2 mph N/A   Overcast
9:54 AM 38.3 °F 29.3 °F 27.0 °F 64% 30.14 in 10.0 mi SSE 16.1 mph - N/A   Overcast
10:14 AM 39.2 °F 30.5 °F 26.6 °F 61% 30.12 in 10.0 mi SSE 16.1 mph 26.5 mph N/A   Overcast
10:34 AM 39.9 °F 30.2 °F 25.9 °F 57% 30.12 in 10.0 mi SSE 20.7 mph 25.3 mph N/A   Overcast
10:54 AM 40.8 °F 32.3 °F 25.0 °F 53% 30.12 in 10.0 mi SSE 17.3 mph 25.3 mph N/A   Scattered Clouds
11:14 AM 41.7 °F 33.1 °F 23.9 °F 49% 30.11 in 10.0 mi SSE 18.4 mph 26.5 mph N/A   Scattered Clouds
11:34 AM 43.2 °F 35.0 °F 23.7 °F 46% 30.09 in 5.0 mi SSE 18.4 mph 27.6 mph N/A   Haze
11:54 AM 44.2 °F 35.0 °F 22.6 °F 42% 30.08 in 10.0 mi SSE 25.3 mph 31.1 mph N/A   Clear
12:14 PM 45.1 °F 37.6 °F 23.2 °F 42% 30.08 in 10.0 mi SSE 18.4 mph 26.5 mph N/A   Clear
12:34 PM 45.9 °F 38.3 °F 21.7 °F 38% 30.07 in 10.0 mi SSE 19.6 mph 28.8 mph N/A   Clear
12:54 PM 46.6 °F - 21.2 °F 37% 30.05 in 10.0 mi SSE 23.0 mph 27.6 mph N/A   Clear
1:14 PM 47.7 °F - 22.3 °F 37% 30.04 in 10.0 mi SSE 20.7 mph 28.8 mph N/A   Clear
1:34 PM 48.2 °F - 22.1 °F 36% 30.03 in 10.0 mi SSE 21.9 mph 29.9 mph N/A   Clear
1:54 PM 49.1 °F - 22.8 °F 36% 30.02 in 10.0 mi SSE 24.2 mph 31.1 mph N/A   Clear
2:14 PM 50.4 °F - 22.8 °F 34% 30.00 in 10.0 mi South 21.9 mph 32.2 mph N/A   Clear
2:34 PM 52.0 °F - 23.2 °F 33% 29.98 in 10.0 mi South 24.2 mph 31.1 mph N/A   Clear
2:54 PM 52.2 °F - 23.0 °F 32% 29.97 in 10.0 mi SSE 23.0 mph 31.1 mph N/A   Clear
3:14 PM 52.9 °F - 23.5 °F 32% 29.94 in 10.0 mi SSE 23.0 mph 28.8 mph N/A   Scattered Clouds
3:34 PM 53.4 °F - 23.2 °F 31% 29.92 in 10.0 mi SSE 21.9 mph 28.8 mph N/A   Clear
3:54 PM 54.3 °F - 23.9 °F 31% 29.91 in 10.0 mi SSE 26.5 mph 33.4 mph N/A   Scattered Clouds
4:14 PM 54.7 °F - 24.1 °F 31% 29.89 in 10.0 mi SSE 17.3 mph - N/A   Scattered Clouds
4:34 PM 55.9 °F - 24.6 °F 30% 29.87 in 10.0 mi SSE 27.6 mph 31.1 mph N/A   Mostly Cloudy
4:54 PM 55.6 °F - 25.2 °F 31% 29.86 in 10.0 mi SSE 21.9 mph 26.5 mph N/A   Mostly Cloudy
5:14 PM 55.8 °F - 25.3 °F 31% 29.83 in 10.0 mi SSE 23.0 mph 29.9 mph N/A   Mostly Cloudy
5:34 PM 56.3 °F - 26.4 °F 32% 29.82 in 10.0 mi SSE 20.7 mph 29.9 mph N/A   Scattered Clouds
5:54 PM 56.3 °F - 26.6 °F 32% 29.82 in 10.0 mi SSE 19.6 mph 25.3 mph N/A   Scattered Clouds
6:14 PM 57.0 °F - 27.5 °F 32% 29.81 in 10.0 mi SSE 18.4 mph 24.2 mph N/A   Clear
6:34 PM 56.5 °F - 28.0 °F 34% 29.80 in 10.0 mi SSE 18.4 mph 27.6 mph N/A   Scattered Clouds
6:54 PM 55.9 °F - 28.0 °F 34% 29.80 in 10.0 mi South 19.6 mph 26.5 mph N/A   Mostly Cloudy
7:14 PM 55.8 °F - 28.6 °F 35% 29.80 in 10.0 mi South 13.8 mph 23.0 mph N/A   Overcast
7:34 PM 55.4 °F - 28.9 °F 36% 29.80 in 10.0 mi SSE 11.5 mph - N/A   Overcast
7:54 PM 54.5 °F - 30.0 °F 39% 29.79 in 10.0 mi SSE 11.5 mph - N/A   Overcast
8:14 PM 53.8 °F - 31.5 °F 43% 29.77 in 10.0 mi SSE 15.0 mph - N/A   Overcast
8:34 PM 54.5 °F - 31.8 °F 42% 29.77 in 10.0 mi SSE 15.0 mph - N/A   Overcast
8:54 PM 54.5 °F - 31.8 °F 42% 29.75 in 10.0 mi South 19.6 mph 28.8 mph N/A Rain Light Rain
9:14 PM 54.7 °F - 31.8 °F 42% 29.74 in 10.0 mi South 18.4 mph 23.0 mph N/A   Overcast
9:34 PM 54.7 °F - 31.5 °F 41% 29.72 in 10.0 mi South 20.7 mph 26.5 mph N/A   Mostly Cloudy
9:54 PM 54.5 °F - 31.5 °F 42% 29.70 in 10.0 mi SSE 24.2 mph 28.8 mph N/A   Mostly Cloudy
10:14 PM 54.9 °F - 31.1 °F 40% 29.69 in 10.0 mi South 20.7 mph 29.9 mph N/A   Overcast
10:34 PM 55.4 °F - 31.1 °F 40% 29.69 in 10.0 mi South 17.3 mph 25.3 mph N/A   Overcast
10:54 PM 55.4 °F - 31.8 °F 41% 29.68 in 10.0 mi South 17.3 mph 24.2 mph N/A   Overcast
11:14 PM 55.9 °F - 32.7 °F 41% 29.70 in 10.0 mi South 17.3 mph 25.3 mph N/A Rain Light Rain
11:34 PM 53.8 °F - 37.9 °F 55% 29.70 in 10.0 mi SSW 13.8 mph - N/A Rain Rain
11:54 PM 53.1 °F - 39.9 °F 61% 29.68 in 10.0 mi South 11.5 mph - N/A Rain Light Rain